Waarnemingen

Advertentie
Mijn weer
Lannion, Frankrijk (7118): temperatuur & dauwpunt: 15.09.2018 10:00:00 - 21.09.2018 10:00:00 (CEST)Lannion, Frankrijk (7118): windsnelheid & windstoten: 15.09.2018 10:00:00 - 21.09.2018 10:00:00 (CEST)Lannion, Frankrijk (7118): windrichting: 15.09.2018 10:00:00 - 21.09.2018 10:00:00 (CEST)Lannion, Frankrijk (7118): luchtdruk: 15.09.2018 10:00:00 - 21.09.2018 10:00:00 (CEST)Lannion, Frankrijk (7118): zicht: 15.09.2018 10:00:00 - 21.09.2018 10:00:00 (CEST)Lannion, Frankrijk (7118): neerslag: 15.09.2018 10:00:00 - 21.09.2018 10:00:00 (CEST)
Datum & Tijd tt [°C] td [°C] ff [km/u] ff [kn] fx [km/u] fx [kn] dd ppp [hPa] vv [km] rr [mm]
21.09.2018 10:00:00 13,9 7,9 26 14 41 22 W 1015,7 19 0,0
21.09.2018 09:00:00 12,6 7,3 26 14 42 23 W 1014,6 56 0,0
21.09.2018 08:00:00 12,3 7,6 26 14 48 26 WNW 1013,3 60 0,0
21.09.2018 07:00:00 12,5 8,6 29 15 54 29 WNW 1012,1 55 0,0
21.09.2018 06:00:00 12,9 8,2 35 19 65 35 W 1011,0 47 0,0
21.09.2018 05:00:00 13,0 8,3 40 22 69 38 W 1010,1 44 0,0
21.09.2018 04:00:00 14,2 10,4 42 23 69 38 W 1009,0 18 0,0
21.09.2018 03:00:00 14,7 11,8 37 20 58 31 W 1008,2 18 0,0
21.09.2018 02:00:00 15,2 13,4 36 20 78 42 W 1007,5 13 1,1
21.09.2018 01:00:00 17,9 16,8 26 14 52 28 Z 1004,6 2,7 2,8
21.09.2018 00:00:00 17,9 16,4 26 14 54 29 Z 1005,9 17 2,0
20.09.2018 23:00:00 18,4 15,3 34 18 56 31 ZZW 1007,5 8 0,2
20.09.2018 22:00:00 19,2 14,9 26 14 50 27 ZZW 1008,0 50 0,0
20.09.2018 21:00:00 19,3 15,0 31 17 54 29 ZZW 1008,9 50 0,0
20.09.2018 20:00:00 19,4 15,7 28 15 53 29 ZZW 1009,7 51 0,0
20.09.2018 19:00:00 20,2 15,2 26 14 51 27 Z 1010,1 48 0,0
20.09.2018 18:00:00 20,9 15,0 32 18 54 29 ZZW 1010,8 49 0,0
20.09.2018 17:00:00 21,7 14,1 35 19 62 33 ZZW 1012,0 53 0,0
20.09.2018 16:00:00 22,8 13,8 35 19 63 34 ZZW 1012,3 35 0,0
20.09.2018 15:00:00 22,6 13,1 37 20 65 35 ZZW 1012,9 41 0,0
20.09.2018 14:00:00 22,5 13,6 37 20 59 32 ZZW 1013,5 30 0,0
20.09.2018 13:00:00 20,2 14,6 26 14 48 26 ZZW 1014,3 20 0,0
20.09.2018 12:00:00 20,3 14,2 32 17 56 31 ZZW 1014,7 29 0,0
20.09.2018 11:00:00 19,3 14,5 27 15 48 26 ZZW 1015,2 19 0,0
20.09.2018 10:00:00 18,0 15,1 19 11 31 17 ZZW 1015,6 18 0,0
20.09.2018 09:00:00 16,5 14,3 13 7 22 12 Z 1015,6 18 0,0
20.09.2018 08:00:00 15,7 13,5 9 5 22 12 ZZW 1015,9 14 0,0
20.09.2018 07:00:00 16,3 13,8 14 8 26 14 ZZW 1016,1 18 0,0
20.09.2018 06:00:00 16,2 13,7 15 8 26 14 ZZW 1016,4 16 0,0
20.09.2018 05:00:00 16,8 13,9 13 7 24 13 ZZW 1016,7 19 0,0
20.09.2018 04:00:00 16,7 14,0 15 8 40 21 Z 1016,8 18 0,0
20.09.2018 03:00:00 16,5 14,0 18 10 34 18 ZZW 1017,2 18 0,0
20.09.2018 02:00:00 16,4 14,2 15 8 29 16 ZZW 1017,1 18 0,0
20.09.2018 01:00:00 16,5 14,3 16 9 26 14 ZZW 1017,2 17 0,0
20.09.2018 00:00:00 16,3 14,3 11 6 21 11 ZZW 1017,6 17 0,0
19.09.2018 23:00:00 16,6 14,2 11 6 20 11 ZZW 1018,0 18 0,0
19.09.2018 22:00:00 17,7 14,6 15 8 27 15 ZZW 1017,8 19 0,0
19.09.2018 21:00:00 18,4 14,5 14 8 33 18 ZZW 1017,8 20 0,0
19.09.2018 20:00:00 19,2 14,2 22 12 41 22 ZW 1017,8 20 0,0
19.09.2018 19:00:00 20,4 14,7 21 11 40 22 ZW 1017,5 20 0,0
19.09.2018 18:00:00 20,9 14,8 30 16 47 25 ZW 1017,1 42 0,0
19.09.2018 17:00:00 21,5 15,8 28 15 49 27 ZZW 1017,0 55 0,0
19.09.2018 16:00:00 22,3 14,4 28 15 52 28 ZW 1017,1 35 0,0
19.09.2018 15:00:00 23,2 14,7 30 16 55 30 ZW 1017,0 29 0,0
19.09.2018 14:00:00 23,0 15,1 32 17 56 30 ZW 1016,9 19 0,0
19.09.2018 13:00:00 22,4 15,5 28 15 50 27 ZW 1016,9 19 0,0
19.09.2018 12:00:00 21,5 14,9 32 17 53 29 ZZW 1016,8 48 0,0
19.09.2018 11:00:00 19,9 14,5 33 18 50 27 ZZW 1016,5 20 0,0
19.09.2018 10:00:00 18,8 14,7 18 10 39 21 ZZW 1016,1 44 0,0
19.09.2018 09:00:00 18,0 14,9 17 9 29 16 Z 1015,8 40 0,0
19.09.2018 08:00:00 17,7 14,8 13 7 26 14 Z 1015,0 41 0,0
19.09.2018 07:00:00 17,2 15,2 16 8 24 13 ZZW 1014,9 19 0,0
19.09.2018 06:00:00 17,3 14,9 16 8 26 14 Z 1014,7 19 0,0
19.09.2018 05:00:00 16,8 14,8 12 7 19 11 ZZW 1015,2 16 0,0
19.09.2018 04:00:00 16,5 14,5 10 5 29 15 ZZW 1015,5 15 0,0
19.09.2018 03:00:00 17,1 14,7 16 9 26 14 Z 1015,3 18 0,0
19.09.2018 02:00:00 17,2 14,7 16 9 26 14 ZZW 1015,5 18 0,0
19.09.2018 01:00:00 17,2 14,7 13 7 23 12 Z 1015,5 16 0,0
19.09.2018 00:00:00 17,4 14,7 13 7 24 13 Z 1015,4 16 0,0
18.09.2018 23:00:00 17,2 13,9 13 7 22 12 Z 1015,3 18 0,0
18.09.2018 22:00:00 18,0 13,7 11 6 22 12 Z 1015,4 40 0,0
18.09.2018 21:00:00 18,5 12,7 11 6 27 14 Z 1015,1 60 0,0
18.09.2018 20:00:00 19,5 12,5 19 10 37 20 ZZW 1014,8 19 0,0
18.09.2018 19:00:00 20,1 12,1 25 13 42 23 ZW 1014,4 52 0,0
18.09.2018 18:00:00 20,9 13,3 23 12 38 20 ZW 1014,3 53 0,0
18.09.2018 17:00:00 21,4 13,8 20 11 40 22 ZZW 1014,2 51 0,0
18.09.2018 16:00:00 23,0 13,2 25 13 37 20 ZW 1014,0 57 0,0
18.09.2018 15:00:00 23,5 13,7 24 13 41 22 ZZW 1013,7 60 0,0
18.09.2018 14:00:00 22,5 13,8 21 12 39 21 ZW 1013,8 60 0,0
18.09.2018 13:00:00 20,2 13,6 24 13 44 24 ZW 1014,1 39 0,0
18.09.2018 12:00:00 19,0 13,2 26 14 44 24 ZW 1014,2 51 0,0
18.09.2018 11:00:00 18,9 14,0 27 15 44 24 ZW 1013,5 20 0,0
18.09.2018 10:00:00 17,8 13,9 24 13 38 21 ZW 1012,7 17 0,0
18.09.2018 09:00:00 17,2 13,3 20 11 35 19 ZW 1012,0 18 0,0
18.09.2018 08:00:00 16,8 13,3 26 14 45 24 ZW 1011,1 17 0,0
18.09.2018 07:00:00 17,3 13,4 25 13 46 25 ZW 1010,7 17 0,0
18.09.2018 06:00:00 17,9 12,6 31 17 52 28 ZW 1010,2 47 0,0
18.09.2018 05:00:00 18,3 13,6 29 16 55 30 ZW 1009,9 19 0,0
18.09.2018 04:00:00 18,6 13,9 27 15 53 29 ZW 1009,5 20 0,0
18.09.2018 03:00:00 19,3 14,1 34 18 68 37 ZZW 1009,1 20 0,0
18.09.2018 02:00:00 18,5 15,2 24 13 52 28 ZZW 1008,7 45 0,0
18.09.2018 01:00:00 18,5 15,6 27 15 57 31 Z 1008,6 45 0,0
18.09.2018 00:00:00 18,9 15,8 34 18 55 30 ZZW 1008,9 32 0,0
17.09.2018 23:00:00 18,6 15,3 20 11 36 20 Z 1008,9 36 0,0
17.09.2018 22:00:00 18,6 14,9 18 10 42 23 Z 1009,3 47 0,0
17.09.2018 21:00:00 19,3 15,2 21 12 49 26 Z 1009,3 47 0,0
17.09.2018 20:00:00 20,3 14,6 24 13 42 23 Z 1009,5 57 0,0
17.09.2018 19:00:00 23,0 9,4 21 11 45 25 ZZO 1009,3 60 0,0
17.09.2018 18:00:00 24,7 10,2 26 14 47 25 Z 1010,1 20 0,0
17.09.2018 17:00:00 25,7 10,7 28 15 44 24 Z 1010,5 39 0,0
17.09.2018 16:00:00 26,1 11,4 23 12 41 22 Z 1011,4 52 0,0
17.09.2018 15:00:00 25,6 11,7 22 12 41 22 Z 1012,2 60 0,0
17.09.2018 14:00:00 24,7 10,9 22 12 39 21 Z 1013,2 60 0,0
17.09.2018 13:00:00 23,4 10,4 21 11 33 18 ZZO 1014,4 60 0,0
17.09.2018 12:00:00 21,2 12,9 12 7 23 12 Z 1015,2 60 0,0
17.09.2018 11:00:00 19,1 14,1 13 7 23 12 ZZO 1016,0 60 0,0
17.09.2018 10:00:00 16,6 14,4 13 7 22 12 ZZO 1016,5 58 0,0
17.09.2018 09:00:00 15,8 15,0 10 5 15 8 ZO 1016,8 11 0,0
17.09.2018 08:00:00 15,7 14,9 9 5 13 7 ZO 1017,0 9 0,0
17.09.2018 07:00:00 15,7 14,9 9 5 12 6 ZO 1017,3 11 0,0
17.09.2018 06:00:00 16,0 15,2 7 4 10 5 ZZO 1017,8 10 0,0
17.09.2018 05:00:00 16,1 15,1 7 4 15 8 Z 1018,3 17 0,0
17.09.2018 04:00:00 15,3 14,3 7 4 13 7 ZZW 1018,6 19 0,0
17.09.2018 03:00:00 14,3 13,3 9 5 15 8 ZZO 1018,7 29 0,0
17.09.2018 02:00:00 14,4 13,4 8 4 11 6 ZZO 1019,6 32 0,0
17.09.2018 01:00:00 14,7 13,7 5 3 10 5 Z 1020,0 33 0,0
17.09.2018 00:00:00 14,7 13,4 6 3 11 6 Z 1020,2 41 0,0
16.09.2018 23:00:00 15,4 13,9 7 4 10 5 Z 1020,1 50 0,0
16.09.2018 22:00:00 15,2 13,9 5 3 8 4 Z 1020,4 58 0,0
16.09.2018 21:00:00 16,4 13,9 3 2 8 5 Z 1019,6 59 0,0
16.09.2018 20:00:00 18,9 14,6 7 4 14 7 WNW 1019,4 60 0,0
16.09.2018 19:00:00 20,9 14,3 8 5 21 11 WNW 1019,4 59 0,0
16.09.2018 18:00:00 22,9 13,7 15 8 25 13 WZW 1019,0 60 0,0
16.09.2018 17:00:00 23,2 12,8 11 6 21 12 ZW 1019,0 20 0,0
16.09.2018 16:00:00 22,5 13,3 11 6 23 13 ZW 1019,6 60 0,0
16.09.2018 15:00:00 21,0 12,2 8 5 23 12 ZZW 1019,7 60 0,0
16.09.2018 14:00:00 20,9 11,0 16 9 29 16 ZW 1020,3 59 0,0
16.09.2018 13:00:00 20,4 10,2 11 6 19 11 ZZW 1020,3 20 0,0
16.09.2018 12:00:00 17,2 12,1 5 3 8 5 Z 1020,9 60 0,0
16.09.2018 11:00:00 14,0 11,9 3 2 11 6 ZZO 1020,7 19 0,0
16.09.2018 10:00:00 11,4 10,3 8 5 13 7 ZZO 1020,4 18 0,0
16.09.2018 09:00:00 9,8 9,2 9 5 15 8 ZZO 1020,5 42 0,2
16.09.2018 08:00:00 9,1 8,6 8 5 10 5 Z 1020,5 35 0,0
16.09.2018 07:00:00 8,3 7,7 5 3 6 3 Z 1020,5 17 0,0
16.09.2018 06:00:00 8,5 7,9 5 3 11 6 ZO 1020,2 13 0,0
16.09.2018 05:00:00 9,7 9,1 5 3 9 5 ZO 1020,9 15 0,0
16.09.2018 04:00:00 10,0 9,4 6 3 8 5 ZO 1021,4 12 0,0
16.09.2018 03:00:00 10,2 9,6 6 3 8 5 ZZO 1022,0 10 0,0
16.09.2018 02:00:00 10,2 9,3 3 1 10 5 ZZW 1022,6 7 0,2
16.09.2018 01:00:00 11,5 10,4 8 4 12 6 ZZO 1022,7 17 0,0
16.09.2018 00:00:00 12,3 10,9 8 4 12 6 ZO 1022,9 40 0,0
15.09.2018 23:00:00 13,1 11,5 11 6 14 8 OZO 1023,3 54 0,0
15.09.2018 22:00:00 13,6 11,5 7 4 14 8 OZO 1023,8 60 0,0
15.09.2018 21:00:00 15,3 11,7 2 1 14 8 NO 1023,6 13 0,0
15.09.2018 20:00:00 17,5 12,0 9 5 19 10 ONO 1023,2 60 0,0
15.09.2018 19:00:00 17,7 12,2 16 8 27 15 N 1023,3 57 0,0
15.09.2018 18:00:00 18,5 11,3 16 9 27 15 N 1023,5 60 0,0
15.09.2018 17:00:00 18,8 11,4 16 8 27 14 N 1023,8 60 0,0
15.09.2018 16:00:00 19,3 12,3 14 7 23 12 N 1024,4 55 0,0
15.09.2018 15:00:00 18,2 12,2 15 8 24 13 N 1025,2 19 0,0
15.09.2018 14:00:00 20,8 9,7 4 2 15 8 ZO 1025,8 60 0,0
15.09.2018 13:00:00 19,8 10,5 6 4 17 9 OZO 1026,2 60 0,0
15.09.2018 12:00:00 18,1 10,7 6 3 18 10 OZO 1026,6 58 0,0
15.09.2018 11:00:00 16,5 12,5 5 3 10 5 ZZO 1026,7 53 0,0
15.09.2018 10:00:00 12,8 11,2 4 2 8 5 ZO 1026,8 38 0,0

tt = temperatuur
td = dauwpunt
ff = windsnelheid
fx = windstoten
dd = windrichting
ppp = luchtdruk
vv = zicht
rr = neerslag

Weerstations in de omgeving